Time,TemperatureF,DewpointF,PressureIn,WindDirection,WindDirectionDegrees,WindSpeedMPH,WindSpeedGustMPH,Humidity,HourlyPrecipIn,Conditions,Clouds,dailyrainin,SoftwareType,DateUTC
2013-03-26 00:00:00,37.9,25.3,29.77,NNW,342,0.0,6.0,60,0.00,,,0.02,WUHU216DAVISVP2,2013-03-26 04:00:00,
2013-03-26 00:05:00,38.0,25.4,29.77,NNW,333,0.0,8.0,60,0.00,,,0.02,WUHU216DAVISVP2,2013-03-26 04:05:00,
2013-03-26 00:10:00,38.2,25.6,29.77,West,280,0.0,8.0,60,0.00,,,0.02,WUHU216DAVISVP2,2013-03-26 04:10:00,
2013-03-26 00:15:00,38.3,25.7,29.77,West,281,1.0,7.0,60,0.00,,,0.02,WUHU216DAVISVP2,2013-03-26 04:15:00,
2013-03-26 00:20:00,38.5,25.9,29.77,North,354,4.0,8.0,60,0.00,,,0.02,WUHU216DAVISVP2,2013-03-26 04:20:00,
2013-03-26 00:25:00,38.6,25.6,29.77,WNW,291,0.0,8.0,59,0.00,,,0.02,WUHU216DAVISVP2,2013-03-26 04:25:00,
2013-03-26 00:30:00,38.6,25.6,29.78,West,264,1.0,4.0,59,0.00,,,0.02,WUHU216DAVISVP2,2013-03-26 04:30:00,
2013-03-26 00:35:00,38.8,25.7,29.78,NW,322,7.0,8.0,59,0.00,,,0.02,WUHU216DAVISVP2,2013-03-26 04:35:00,
2013-03-26 00:40:00,38.8,25.7,29.78,NNW,328,0.0,8.0,59,0.00,,,0.02,WUHU216DAVISVP2,2013-03-26 04:40:00,
2013-03-26 00:45:00,38.8,25.7,29.78,SW,234,1.0,6.0,59,0.00,,,0.02,WUHU216DAVISVP2,2013-03-26 04:45:00,
2013-03-26 00:50:00,38.8,25.7,29.78,SW,230,0.0,6.0,59,0.00,,,0.02,WUHU216DAVISVP2,2013-03-26 04:50:00,
2013-03-26 00:55:00,38.6,26.0,29.78,North,349,0.0,4.0,60,0.00,,,0.02,WUHU216DAVISVP2,2013-03-26 04:55:00,
2013-03-26 01:00:00,38.6,25.6,29.78,South,175,0.0,4.0,59,0.00,,,0.02,WUHU216DAVISVP2,2013-03-26 05:00:00,
2013-03-26 01:05:00,38.6,25.6,29.78,ENE,64,0.0,4.0,59,0.00,,,0.00,WUHU216DAVISVP2,2013-03-26 05:05:00,
2013-03-26 01:10:00,38.6,25.6,29.78,ENE,71,1.0,2.0,59,0.00,,,0.00,WUHU216DAVISVP2,2013-03-26 05:10:00,
2013-03-26 01:15:00,38.6,25.6,29.78,NNW,337,0.0,4.0,59,0.00,,,0.00,WUHU216DAVISVP2,2013-03-26 05:15:00,
2013-03-26 01:20:00,38.6,25.6,29.78,WNW,292,0.0,6.0,59,0.00,,,0.00,WUHU216DAVISVP2,2013-03-26 05:20:00,
2013-03-26 01:25:00,38.6,25.6,29.78,North,353,6.0,7.0,59,0.00,,,0.00,WUHU216DAVISVP2,2013-03-26 05:25:00,
2013-03-26 01:30:00,38.6,25.6,29.78,WNW,289,0.0,7.0,59,0.00,,,0.00,WUHU216DAVISVP2,2013-03-26 05:30:00,
2013-03-26 01:35:00,38.6,25.6,29.78,NW,318,1.0,6.0,59,0.00,,,0.00,WUHU216DAVISVP2,2013-03-26 05:35:00,
2013-03-26 01:40:00,38.6,26.0,29.78,WNW,291,1.0,4.0,60,0.00,,,0.00,WUHU216DAVISVP2,2013-03-26 05:40:00,
2013-03-26 01:45:00,38.6,26.0,29.79,NNW,344,0.0,4.0,60,0.00,,,0.00,WUHU216DAVISVP2,2013-03-26 05:45:00,
2013-03-26 01:50:00,38.5,25.9,29.79,North,357,0.0,6.0,60,0.00,,,0.00,WUHU216DAVISVP2,2013-03-26 05:50:00,
2013-03-26 01:55:00,38.5,25.5,29.79,North,0,0.0,6.0,59,0.00,,,0.00,WUHU216DAVISVP2,2013-03-26 05:55:00,
2013-03-26 02:00:00,38.6,25.6,29.80,SE,136,0.0,6.0,59,0.00,,,0.00,WUHU216DAVISVP2,2013-03-26 06:00:00,
2013-03-26 02:05:00,38.6,26.0,29.80,SE,130,0.0,2.0,60,0.00,,,0.00,WUHU216DAVISVP2,2013-03-26 06:05:00,
2013-03-26 02:10:00,38.5,25.5,29.80,NE,54,0.0,2.0,59,0.00,,,0.00,WUHU216DAVISVP2,2013-03-26 06:10:00,
2013-03-26 02:15:00,38.5,25.9,29.80,NE,54,0.0,2.0,60,0.00,,,0.00,WUHU216DAVISVP2,2013-03-26 06:15:00,
2013-03-26 02:20:00,38.5,25.9,29.80,South,174,0.0,1.0,60,0.00,,,0.00,WUHU216DAVISVP2,2013-03-26 06:20:00,
2013-03-26 02:25:00,38.3,25.7,29.80,South,171,0.0,1.0,60,0.00,,,0.00,WUHU216DAVISVP2,2013-03-26 06:25:00,
2013-03-26 02:30:00,38.3,25.7,29.80,NNW,336,0.0,2.0,60,0.00,,,0.00,WUHU216DAVISVP2,2013-03-26 06:30:00,
2013-03-26 02:35:00,38.3,25.7,29.80,NNW,336,1.0,2.0,60,0.00,,,0.00,WUHU216DAVISVP2,2013-03-26 06:35:00,
2013-03-26 02:40:00,38.3,25.7,29.80,NNW,340,0.0,6.0,60,0.00,,,0.00,WUHU216DAVISVP2,2013-03-26 06:40:00,
2013-03-26 02:45:00,38.2,25.6,29.80,NNW,333,0.0,6.0,60,0.00,,,0.00,WUHU216DAVISVP2,2013-03-26 06:45:00,
2013-03-26 02:50:00,38.2,25.6,29.80,NNW,328,0.0,2.0,60,0.00,,,0.00,WUHU216DAVISVP2,2013-03-26 06:50:00,
2013-03-26 02:55:00,38.2,26.0,29.80,North,353,0.0,4.0,61,0.00,,,0.00,WUHU216DAVISVP2,2013-03-26 06:55:00,
2013-03-26 03:00:00,38.2,26.0,29.80,SSW,193,0.0,4.0,61,0.00,,,0.00,WUHU216DAVISVP2,2013-03-26 07:00:00,
2013-03-26 03:05:00,38.2,26.4,29.80,SSW,193,0.0,4.0,62,0.00,,,0.00,WUHU216DAVISVP2,2013-03-26 07:05:00,
2013-03-26 03:10:00,38.2,26.0,29.80,SSW,203,0.0,1.0,61,0.00,,,0.00,WUHU216DAVISVP2,2013-03-26 07:10:00,
2013-03-26 03:15:00,38.2,26.0,29.80,SW,236,0.0,2.0,61,0.00,,,0.00,WUHU216DAVISVP2,2013-03-26 07:15:00,